Вернуться в каталог

COSMOS 1433

АктивенВоенныеLEO
NORAD 13765·PAYLOAD·🇷🇺 Russia

Запущен Jan 19, 1983 с Plesetsk Cosmodrome

Loading…

Ближайшие Пролёты (ближайшие 24 часа)

TLE

СвежийSource: Space-Track

Эпоха: Sep 14, 2026, 08:53 UTC

1 13765U 83002E   26257.37082473  .00000007  00000-0  15017-3 0  9995
2 13765  74.0233 134.5322 0013858 194.4345 282.0226 12.51951949995278

Отслеживайте COSMOS 1433 в реальном времени с AllMySat

Download on the App Store